When you browse on this site, cookies collect data to enhance your experience and personalize the content and advertising you see.
Visit our Privacy Policy to learn more. By continuing to use the site, you agree to this use of cookies and data.
  • In United Kingdom
  • List of Countries
  • For 7 days
  • Water Temperature
  • Weather Map
  • Weather Widgets
  • user-avatar
    Login

    Hourly Weather Goycay

    Today, 16 September, Monday

    Time Temperature Precipitation Wind Pressure Humidity
    00:00 +21°C° 0 mm 2 mps 754 mmHg 75%
    01:00 +22°C° 0 mm 1 mps 754 mmHg 74%
    02:00 +22°C° 0 mm 1 mps 754 mmHg 74%
    03:00 +22°C° 0 mm 1 mps 754 mmHg 75%
    04:00 +22°C° 0.3 mm 1 mps 754 mmHg 77%
    05:00 +22°C° 0.3 mm 1 mps 755 mmHg 78%
    06:00 +22°C° 0.3 mm 1 mps 755 mmHg 80%
    07:00 +23°C° 0.3 mm 1 mps 755 mmHg 76%
    08:00 +24°C° 0.3 mm 1 mps 754 mmHg 71%
    09:00 +25°C° 0.3 mm 2 mps 754 mmHg 67%
    10:00 +26°C° 0.2 mm 2 mps 754 mmHg 60%
    11:00 +28°C° 0.2 mm 3 mps 753 mmHg 54%
    12:00 +29°C° 0.2 mm 3 mps 752 mmHg 47%
    13:00 +30°C° 0 mm 4 mps 752 mmHg 45%
    14:00 +30°C° 0 mm 4 mps 751 mmHg 43%
    15:00 +32°C° 0 mm 4 mps 750 mmHg 42%
    16:00 +29°C° 0 mm 4 mps 750 mmHg 48%
    17:00 +28°C° 0 mm 3 mps 750 mmHg 54%
    18:00 +26°C° 0 mm 3 mps 749 mmHg 60%
    19:00 +26°C° 0 mm 3 mps 750 mmHg 61%
    20:00 +25°C° 0 mm 2 mps 750 mmHg 63%
    21:00 +25°C° 0 mm 2 mps 750 mmHg 64%
    22:00 +24°C° 0 mm 1 mps 749 mmHg 68%
    23:00 +23°C° 0 mm 1 mps 749 mmHg 71%

    Tomorrow, 17 September, Tuesday

    Time Temperature Precipitation Wind Pressure Humidity
    00:00 +20°C° 0 mm 0 mps 748 mmHg 74%
    01:00 +20°C° 0 mm 0 mps 748 mmHg 77%
    02:00 +21°C° 0 mm 1 mps 748 mmHg 79%
    03:00 +21°C° 0 mm 1 mps 748 mmHg 81%
    04:00 +19°C° 0 mm 0 mps 748 mmHg 82%
    05:00 +19°C° 0 mm 0 mps 748 mmHg 83%
    06:00 +19°C° 0 mm 0 mps 748 mmHg 83%
    07:00 +23°C° 0 mm 1 mps 748 mmHg 74%
    08:00 +25°C° 0 mm 1 mps 748 mmHg 65%
    09:00 +27°C° 0 mm 1 mps 748 mmHg 56%
    10:00 +29°C° 0 mm 2 mps 747 mmHg 49%
    11:00 +31°C° 0 mm 3 mps 747 mmHg 42%
    12:00 +34°C° 0 mm 3 mps 747 mmHg 35%
    13:00 +35°C° 0 mm 3 mps 746 mmHg 32%
    14:00 +36°C° 0 mm 3 mps 746 mmHg 30%
    15:00 +36°C° 0 mm 3 mps 746 mmHg 27%
    16:00 +35°C° 0 mm 2 mps 746 mmHg 31%
    17:00 +32°C° 0 mm 1 mps 746 mmHg 34%
    18:00 +30°C° 0 mm 1 mps 745 mmHg 38%
    19:00 +28°C° 0 mm 1 mps 746 mmHg 46%
    20:00 +27°C° 0 mm 1 mps 747 mmHg 54%
    21:00 +25°C° 0 mm 2 mps 747 mmHg 62%
    22:00 +24°C° 0.1 mm 1 mps 748 mmHg 65%
    23:00 +24°C° 0.1 mm 1 mps 748 mmHg 68%

    Day after tomorrow, 18 September, Wednesday

    Time Temperature Precipitation Wind Pressure Humidity
    00:00 +21°C° 0.1 mm 0 mps 749 mmHg 70%
    01:00 +21°C° 0 mm 0 mps 749 mmHg 72%
    02:00 +22°C° 0 mm 1 mps 749 mmHg 73%
    03:00 +22°C° 0 mm 1 mps 749 mmHg 74%
    04:00 +22°C° 0 mm 1 mps 749 mmHg 74%
    05:00 +22°C° 0 mm 1 mps 750 mmHg 74%
    06:00 +22°C° 0 mm 1 mps 750 mmHg 74%
    07:00 +24°C° 0 mm 1 mps 750 mmHg 66%
    08:00 +26°C° 0 mm 2 mps 751 mmHg 58%
    09:00 +27°C° 0 mm 2 mps 751 mmHg 49%
    10:00 +29°C° 0 mm 2 mps 751 mmHg 42%
    11:00 +31°C° 0 mm 3 mps 751 mmHg 35%
    12:00 +34°C° 0 mm 3 mps 751 mmHg 27%
    13:00 +35°C° 0 mm 3 mps 751 mmHg 24%
    14:00 +36°C° 0 mm 3 mps 750 mmHg 21%
    15:00 +36°C° 0 mm 4 mps 750 mmHg 18%
    16:00 +34°C° 0 mm 3 mps 750 mmHg 24%
    17:00 +31°C° 0 mm 3 mps 750 mmHg 29%
    18:00 +29°C° 0 mm 2 mps 750 mmHg 34%
    19:00 +27°C° 0 mm 3 mps 750 mmHg 45%
    20:00 +26°C° 0 mm 3 mps 750 mmHg 55%
    21:00 +23°C° 0 mm 4 mps 751 mmHg 66%
    22:00 +24°C° 0 mm 3 mps 750 mmHg 66%
    23:00 +24°C° 0 mm 3 mps 750 mmHg 67%

    19 September, Thursday

    Time Temperature Precipitation Wind Pressure Humidity
    00:00 +23°C° 0 mm 2 mps 750 mmHg 67%
    01:00 +23°C° 0 mm 2 mps 750 mmHg 65%
    02:00 +23°C° 0 mm 2 mps 749 mmHg 62%
    03:00 +22°C° 0 mm 1 mps 749 mmHg 60%
    04:00 +21°C° 0 mm 2 mps 749 mmHg 61%
    05:00 +21°C° 0 mm 2 mps 749 mmHg 62%
    06:00 +20°C° 0 mm 2 mps 749 mmHg 63%
    07:00 +24°C° 0 mm 2 mps 749 mmHg 52%
    08:00 +27°C° 0 mm 3 mps 749 mmHg 41%
    09:00 +29°C° 0 mm 3 mps 750 mmHg 29%
    10:00 +32°C° 0 mm 4 mps 750 mmHg 25%
    11:00 +35°C° 0 mm 4 mps 750 mmHg 20%
    12:00 +37°C° 0 mm 4 mps 750 mmHg 16%
    13:00 +37°C° 0 mm 4 mps 750 mmHg 14%
    14:00 +38°C° 0 mm 4 mps 750 mmHg 13%
    15:00 +38°C° 0 mm 4 mps 750 mmHg 12%
    16:00 +36°C° 0 mm 4 mps 751 mmHg 18%
    17:00 +33°C° 0 mm 4 mps 751 mmHg 24%
    18:00 +29°C° 0 mm 5 mps 751 mmHg 30%
    19:00 +28°C° 0 mm 4 mps 751 mmHg 40%
    20:00 +26°C° 0 mm 3 mps 752 mmHg 50%
    21:00 +24°C° 0 mm 2 mps 752 mmHg 60%
    22:00 +23°C° 0 mm 2 mps 753 mmHg 62%
    23:00 +22°C° 0 mm 1 mps 753 mmHg 65%

    20 September, Friday

    Time Temperature Precipitation Wind Pressure Humidity
    00:00 +22°C° 0 mm 1 mps 753 mmHg 67%
    01:00 +21°C° 0 mm 1 mps 752 mmHg 68%
    02:00 +21°C° 0 mm 1 mps 752 mmHg 69%
    03:00 +20°C° 0 mm 1 mps 752 mmHg 70%
    04:00 +20°C° 0 mm 1 mps 752 mmHg 71%
    05:00 +20°C° 0 mm 1 mps 752 mmHg 71%
    06:00 +20°C° 0 mm 1 mps 751 mmHg 71%
    07:00 +22°C° 0 mm 1 mps 751 mmHg 64%
    08:00 +23°C° 0 mm 2 mps 751 mmHg 57%
    09:00 +25°C° 0 mm 2 mps 751 mmHg 50%
    10:00 +26°C° 0 mm 2 mps 750 mmHg 46%
    11:00 +28°C° 0 mm 2 mps 750 mmHg 42%
    12:00 +29°C° 0 mm 3 mps 749 mmHg 38%
    13:00 +29°C° 0 mm 3 mps 748 mmHg 37%
    14:00 +30°C° 0 mm 2 mps 748 mmHg 35%
    15:00 +31°C° 0 mm 2 mps 747 mmHg 33%
    16:00 +29°C° 0 mm 2 mps 747 mmHg 37%
    17:00 +28°C° 0 mm 2 mps 747 mmHg 40%
    18:00 +26°C° 0 mm 1 mps 746 mmHg 43%
    19:00 +25°C° 0 mm 1 mps 746 mmHg 47%
    20:00 +25°C° 0 mm 2 mps 746 mmHg 50%
    21:00 +24°C° 0 mm 2 mps 746 mmHg 54%
    22:00 +23°C° 0 mm 2 mps 746 mmHg 60%
    23:00 +21°C° 0 mm 2 mps 746 mmHg 66%

    21 September, Saturday

    Time Temperature Precipitation Wind Pressure Humidity
    00:00 +20°C° 0 mm 2 mps 745 mmHg 72%
    01:00 +20°C° 0 mm 2 mps 745 mmHg 73%
    02:00 +21°C° 0 mm 1 mps 745 mmHg 73%
    03:00 +18°C° 0 mm 0 mps 744 mmHg 74%
    04:00 +20°C° 0 mm 1 mps 744 mmHg 76%
    05:00 +20°C° 0 mm 1 mps 745 mmHg 77%
    06:00 +20°C° 0 mm 1 mps 745 mmHg 79%
    07:00 +21°C° 0 mm 2 mps 745 mmHg 69%
    08:00 +24°C° 0 mm 2 mps 746 mmHg 59%
    09:00 +26°C° 0 mm 3 mps 746 mmHg 50%
    10:00 +28°C° 0 mm 3 mps 746 mmHg 45%
    11:00 +29°C° 0 mm 3 mps 746 mmHg 40%
    12:00 +31°C° 0 mm 3 mps 746 mmHg 34%
    13:00 +32°C° 0 mm 4 mps 746 mmHg 32%
    14:00 +33°C° 0 mm 4 mps 746 mmHg 30%
    15:00 +33°C° 0 mm 5 mps 746 mmHg 27%
    16:00 +30°C° 0 mm 5 mps 747 mmHg 31%
    17:00 +28°C° 0 mm 6 mps 747 mmHg 35%
    18:00 +24°C° 0 mm 7 mps 748 mmHg 38%
    19:00 +23°C° 0 mm 6 mps 749 mmHg 41%
    20:00 +22°C° 0 mm 6 mps 750 mmHg 43%
    21:00 +21°C° 0 mm 6 mps 751 mmHg 46%
    22:00 +21°C° 0 mm 6 mps 751 mmHg 46%
    23:00 +20°C° 0 mm 6 mps 751 mmHg 46%
    Show more